Location: Pallagorio
(39.3000°N, 16.9000°E)
Time: 08:55:58
(UTC+00:00)

Cosmos 1538 Rocket - Visible Passes

Search period start: 09 May 2021 00:00
Search period end: 19 May 2021 00:00
Orbit: 751 x 793 km, 74.0° (Epoch: 08 May)

Date Brightness Start Highest point End Pass type
(mag) Time Alt. Az. Time Alt. Az. Time Alt. Az.
09 May 5.4 19:42:48 10° N 19:47:06 24° ENE 19:48:30 21° E visible
09 May 4.9 21:24:22 10° NNW 21:28:51 41° W 21:28:51 41° W visible
10 May 6.0 19:07:52 10° NNE 19:10:53 15° NE 19:13:26 11° E visible
10 May 4.0 20:48:17 10° NNW 20:53:38 73° WSW 20:53:47 72° WSW visible
11 May 4.0 20:12:25 10° NNW 20:17:46 68° ENE 20:18:45 55° ESE visible
11 May 6.3 21:56:42 10° WNW 21:59:07 14° W 21:59:07 14° W visible
12 May 4.7 19:36:46 10° N 19:41:49 40° ENE 19:43:45 29° ESE visible
12 May 5.7 21:19:30 10° NW 21:23:39 23° W 21:24:07 23° WSW visible
13 May 5.3 19:01:21 10° N 19:05:44 25° ENE 19:08:48 16° ESE visible
13 May 4.9 20:43:02 10° NW 20:48:00 39° WSW 20:49:09 35° SW visible
14 May 5.9 18:26:19 10° NNE 18:29:33 16° NE 18:32:44 10° E visible
14 May 4.2 20:06:55 10° NNW 20:12:14 68° WSW 20:14:13 38° S visible
15 May 4.0 19:31:01 10° NNW 19:36:23 73° ENE 19:39:19 27° SSE visible
15 May 6.4 21:15:39 10° WNW 21:17:46 12° W 21:19:41 10° WSW visible
16 May 4.6 18:55:20 10° N 19:00:26 43° ENE 19:04:27 15° SE visible
16 May 6.0 20:38:14 10° NW 20:42:12 22° W 20:44:49 15° SW visible
17 May 5.2 20:01:43 10° NW 20:06:34 36° W 20:10:01 17° SSW visible
18 May 4.4 19:25:33 10° NNW 19:30:49 63° WSW 19:35:14 14° S visible
